Flag for Italy Weather past 2 weeks in Bologna, Italy

Now
64 °F

Scattered clouds.


Feels Like: 64 °F
Forecast: 51 / 75 °F
Wind: 3 mph from North

Location: Bologna / Borgo Panigale

Current Time: May 24, 2015 at 11:34:36 AM

Latest Report: May 24, 2015 at 10:50 AM


Visibility: N/A

Pressure: 29.98 "Hg

Humidity: 64%

Dew point: 52 °F

Location of BolognaLocation

Historic Weather in Bologna — Graph

°F

Bologna temperature yesterday

Maximum temperature yesterday: 59 °F (at 3:50 PM)
Minimum temperature yesterday: 54 °F (at 2:20 AM)
Average temperature yesterday: 56 °F

Past Weeks' High & Low Weather Summary

 TemperatureHumidityPressure
High84 °F (May 14, 3:50 PM)100% (May 16, 7:50 AM)30.27 "Hg (May 16, 7:50 AM)
Low48 °F (May 21, 3:50 AM)30% (May 11, 5:20 PM)29.65 "Hg (May 15, 3:20 AM)
Average66 °F69%29.96 "Hg
* Reported May 9 10:20 AM — May 24 10:20 AM, Bologna, Weather by CustomWeather, © 2015

Note: Actual official high and low records may vary slightly from our data, if they occured in-between our weather recording intervals... More about our weather records

Advertising

Bologna weather history for previous 24 hours

 ConditionsComfort  
Time TempWeatherWind HumidityBarometerVisibility
10:20 AM
Sun, May 24
63 °FScattered clouds.6 mph77%29.98 "HgN/A
9:50 AM61 °FScattered clouds.7 mph83%29.98 "HgN/A
9:20 AM59 °FScattered clouds.7 mph82%29.98 "HgN/A
8:50 AM59 °FScattered clouds.7 mph88%29.98 "HgN/A
8:20 AM57 °FBroken clouds.8 mph88%29.98 "HgN/A
7:50 AM55 °FBroken clouds.7 mph94%29.95 "HgN/A
7:20 AM55 °FScattered clouds.7 mph94%29.95 "HgN/A
6:50 AM55 °FScattered clouds.7 mph94%29.95 "HgN/A
6:20 AM55 °FPartly cloudy.6 mph94%29.95 "Hg4 mi
5:50 AM55 °FPartly cloudy.6 mph88%29.95 "Hg4 mi
5:20 AM55 °FPartly cloudy.6 mph88%29.92 "Hg4 mi
4:50 AM55 °FPassing clouds.6 mph88%29.92 "Hg4 mi
4:20 AM55 °FPassing clouds.6 mph94%29.92 "Hg4 mi
3:50 AM55 °FPassing clouds.7 mph94%29.95 "Hg4 mi
3:20 AM55 °FPassing clouds.7 mph94%29.95 "Hg4 mi
2:50 AM55 °FPassing clouds.6 mph94%29.95 "Hg5 mi
2:20 AM54 °FPassing clouds.5 mph100%29.95 "Hg5 mi
1:50 AM54 °FPassing clouds.6 mph100%29.95 "Hg5 mi
1:20 AM55 °FPassing clouds.6 mph94%29.95 "Hg5 mi
12:50 AM55 °FPassing clouds.5 mph94%29.95 "Hg5 mi
12:20 AM55 °FPassing clouds.6 mph94%29.95 "HgN/A
11:50 PM
Sat, May 23
55 °FPassing clouds.6 mph100%29.95 "HgN/A
11:20 PM55 °FPassing clouds.7 mph100%29.95 "HgN/A
10:50 PM55 °FPassing clouds.6 mph100%29.95 "HgN/A
10:20 PM57 °FPassing clouds.3 mph94%29.95 "HgN/A
9:50 PM57 °FPassing clouds.3 mph94%29.95 "HgN/A
9:20 PM57 °FPartly sunny.2 mph94%29.92 "HgN/A
8:50 PM57 °FPartly sunny.3 mph94%29.92 "HgN/A
8:20 PM57 °FPartly sunny.2 mph94%29.92 "HgN/A
7:50 PM57 °FPartly sunny.2 mph94%29.89 "HgN/A
7:20 PM57 °FDrizzle. Broken clouds.2 mph94%29.89 "HgN/A
6:50 PM57 °FDrizzle. Broken clouds.2 mph94%29.89 "HgN/A
6:20 PM57 °FBroken clouds.3 mph94%29.89 "HgN/A
5:50 PM57 °FBroken clouds.6 mph94%29.89 "HgN/A
5:20 PM57 °FLight rain. Broken clouds.6 mph94%29.89 "HgN/A
4:50 PM59 °FLight rain. Broken clouds.6 mph88%29.89 "HgN/A
4:20 PM59 °FLight rain. Broken clouds.6 mph88%29.89 "HgN/A
3:50 PM59 °FPartly sunny.5 mph94%29.89 "HgN/A
3:20 PM57 °FDrizzle. Broken clouds.6 mph94%29.89 "HgN/A
2:50 PM57 °FRain. Broken clouds.8 mph94%29.89 "Hg5 mi
2:20 PM57 °FLight rain. Broken clouds.7 mph94%29.89 "Hg5 mi
1:50 PM57 °FLight rain. Broken clouds.7 mph94%29.89 "Hg5 mi
1:20 PM57 °FLight rain. Broken clouds.5 mph94%29.89 "Hg5 mi
12:50 PM57 °FLight rain. Broken clouds.6 mph88%29.89 "Hg5 mi
12:20 PM57 °FLight rain. Broken clouds.6 mph94%29.89 "Hg5 mi
11:50 AM57 °FLight rain. Broken clouds.6 mph94%29.89 "Hg5 mi
11:20 AM57 °FLight rain. Broken clouds.6 mph94%29.86 "Hg5 mi
Weather by CustomWeather, © 2015

See weather overviewHow to use our weather pages